Location: Lisboa
(38.7078°N, 9.1366°W)
Time: 05:31:50
(UTC+00:00)

ARIANE 6 FM1 Upper Stage - Visible Passes

Search period start: 15 January 2026 00:00
Search period end: 25 January 2026 00:00
Orbit: 522 x 610 km, 62.0° (Epoch: 14 January)

Date Brightness Start Highest point End Pass type
(mag) Time Alt. Az. Time Alt. Az. Time Alt. Az.
15 Jan 4.8 05:14:11 23° ENE 05:14:11 23° ENE 05:16:36 10° ESE visible
15 Jan 3.5 06:50:14 19° WNW 06:52:16 29° WSW 06:55:46 10° S visible
16 Jan 4.6 05:15:03 26° E 05:15:03 26° E 05:17:17 10° ESE visible
16 Jan 4.1 06:51:06 17° W 06:52:21 19° WSW 06:55:14 10° SSW visible
17 Jan 4.7 05:15:59 24° ESE 05:15:59 24° ESE 05:17:46 10° SE visible
17 Jan 4.5 06:52:04 12° WSW 06:52:24 12° WSW 06:54:05 10° SW visible
18 Jan 5.0 05:17:02 17° SE 05:17:02 17° SE 05:18:04 10° SE visible
18 Jan 4.8 19:09:57 10° SSE 19:10:40 12° SE 19:10:40 12° SE visible
19 Jan 5.5 05:18:08 10° SSE 05:18:08 10° SSE 05:18:10 10° SSE visible
19 Jan 4.0 19:09:06 10° SSE 19:11:48 22° SE 19:11:48 22° SE visible
19 Jan 5.7 20:47:29 10° WSW 20:47:52 12° WSW 20:47:52 12° WSW visible
20 Jan 3.3 19:08:41 10° S 19:12:26 34° ESE 19:12:52 33° ESE visible
20 Jan 5.7 20:48:13 10° W 20:48:57 14° W 20:48:57 14° W visible
21 Jan 2.7 19:08:32 10° SSW 19:12:33 54° ESE 19:13:51 36° ENE visible
21 Jan 5.7 20:49:11 10° W 20:49:55 13° WNW 20:49:55 13° WNW visible
22 Jan 2.5 19:08:35 10° SSW 19:12:42 86° SE 19:14:44 28° NE visible
22 Jan 5.8 20:50:33 10° WNW 20:50:48 11° WNW 20:50:48 11° WNW visible
23 Jan 3.0 19:08:49 10° SW 19:12:53 62° NW 19:15:33 20° NNE visible
24 Jan 3.7 19:09:14 10° WSW 19:13:06 40° NW 19:16:15 14° NNE visible
